| time (UTC) | temp F | wind direction | speed MPH | gust MPH | rain 1hr in | rain 24hr in | rain mn in | humidity % | barometer mb |
| 20260507093049 | 47 | 0 | 0.0 | 4.0 | 0.00 | 0.35 | 0.13 | 88 | 1005.6 |
| 20260507091546 | 47 | 338 | 5.0 | 9.0 | 0.00 | 0.35 | 0.13 | 87 | 1005.6 |
| 20260507090050 | 48 | 331 | 4.0 | 13.0 | 0.00 | 0.35 | 0.13 | 86 | 1005.6 |
| 20260507084548 | 48 | 338 | 7.0 | 14.0 | 0.00 | 0.35 | 0.13 | 87 | 1005.8 |
| 20260507083049 | 48 | 329 | 8.0 | 13.0 | 0.00 | 0.35 | 0.13 | 90 | 1005.0 |
| 20260507081553 | 49 | 334 | 5.0 | 9.0 | 0.00 | 0.35 | 0.13 | 91 | 1005.4 |
| 20260507080053 | 49 | 333 | 3.0 | 10.0 | 0.00 | 0.35 | 0.13 | 91 | 1005.1 |
| 20260507074558 | 49 | 325 | 5.0 | 10.0 | 0.00 | 0.35 | 0.13 | 91 | 1005.2 |
| 20260507073101 | 49 | 350 | 5.0 | 14.0 | 0.00 | 0.35 | 0.13 | 91 | 1004.9 |
| 20260507071554 | 49 | 335 | 5.0 | 10.0 | 0.00 | 0.35 | 0.13 | 92 | 1005.0 |
| 20260507070105 | 50 | 320 | 4.0 | 7.0 | 0.00 | 0.35 | 0.13 | 93 | 1004.8 |
| 20260507064556 | 50 | 336 | 2.0 | 5.0 | 0.00 | 0.35 | 0.13 | 94 | 1004.4 |
| 20260507060055 | 50 | 335 | 5.0 | 9.0 | 0.00 | 0.35 | 0.13 | 95 | 1004.2 |
| 20260507054550 | 51 | 338 | 6.0 | 15.0 | 0.01 | 0.35 | 0.13 | 96 | 1004.5 |
| 20260507053102 | 51 | 355 | 6.0 | 15.0 | 0.05 | 0.35 | 0.13 | 97 | 1004.1 |
| 20260507051553 | 52 | 336 | 3.0 | 9.0 | 0.11 | 0.35 | 0.13 | 97 | 1004.3 |
| 20260507050050 | 51 | 344 | 4.0 | 8.0 | 0.13 | 0.35 | 0.13 | 97 | 1003.9 |
| 20260507044606 | 50 | 323 | 2.0 | 6.0 | 0.13 | 0.34 | 0.12 | 97 | 1003.7 |
| 20260507043050 | 50 | 298 | 7.0 | 16.0 | 0.09 | 0.30 | 0.08 | 97 | 1004.2 |
| 20260507041551 | 51 | 231 | 6.0 | 13.0 | 0.03 | 0.24 | 0.02 | 97 | 1003.7 |
| 20260507040101 | 51 | 187 | 7.0 | 11.0 | 0.01 | 0.22 | 0.00 | 97 | 1003.3 |
| 20260507034547 | 50 | 215 | 7.0 | 12.0 | 0.00 | 0.21 | 0.21 | 97 | 1003.4 |
| 20260507033107 | 50 | 188 | 9.0 | 17.0 | 0.01 | 0.21 | 0.21 | 97 | 1003.5 |
| 20260507031559 | 50 | 184 | 11.0 | 18.0 | 0.01 | 0.21 | 0.21 | 97 | 1003.5 |
| 20260507030107 | 50 | 170 | 12.0 | 19.0 | 0.01 | 0.21 | 0.21 | 97 | 1003.5 |
| 20260507014559 | 50 | 187 | 12.0 | 18.0 | 0.01 | 0.20 | 0.20 | 96 | 1004.6 |
| 20260507013100 | 50 | 166 | 12.0 | 19.0 | 0.02 | 0.20 | 0.20 | 96 | 1004.7 |
| 20260507011557 | 50 | 184 | 12.0 | 17.0 | 0.03 | 0.20 | 0.20 | 96 | 1004.8 |
| 20260507010054 | 50 | 161 | 14.0 | 22.0 | 0.02 | 0.19 | 0.19 | 96 | 1004.8 |
| 20260507004554 | 50 | 184 | 12.0 | 21.0 | 0.02 | 0.19 | 0.19 | 96 | 1005.0 |
| 20260507003050 | 50 | 173 | 14.0 | 24.0 | 0.01 | 0.18 | 0.18 | 96 | 1005.1 |
| 20260507001556 | 50 | 150 | 14.0 | 24.0 | 0.00 | 0.17 | 0.17 | 95 | 1005.1 |
| 20260507000051 | 50 | 159 | 14.0 | 22.0 | 0.00 | 0.17 | 0.17 | 95 | 1004.9 |
| 20260506234555 | 50 | 173 | 15.0 | 26.0 | 0.00 | 0.17 | 0.17 | 95 | 1004.9 |
| 20260506233050 | 51 | 187 | 16.0 | 27.0 | 0.00 | 0.17 | 0.17 | 94 | 1005.2 |
| 20260506231554 | 51 | 173 | 14.0 | 21.0 | 0.00 | 0.17 | 0.17 | 94 | 1005.2 |
| 20260506230050 | 51 | 198 | 14.0 | 22.0 | 0.01 | 0.17 | 0.17 | 94 | 1005.4 |
| 20260506150049 | 50 | 191 | 9.0 | 13.0 | 0.00 | 0.00 | 0.00 | 90 | 1008.8 |
| 20260506144549 | 51 | 180 | 10.0 | 15.0 | 0.00 | 0.00 | 0.00 | 90 | 1008.6 |
| 20260506143045 | 50 | 169 | 8.0 | 16.0 | 0.00 | 0.00 | 0.00 | 90 | 1008.9 |
| 20260506141550 | 50 | 167 | 11.0 | 16.0 | 0.00 | 0.00 | 0.00 | 91 | 1009.2 |
| 20260506140048 | 50 | 171 | 10.0 | 15.0 | 0.00 | 0.00 | 0.00 | 91 | 1009.3 |
| 20260506134553 | 50 | 173 | 10.0 | 16.0 | 0.00 | 0.00 | 0.00 | 90 | 1009.2 |
| 20260506133047 | 50 | 175 | 11.0 | 16.0 | 0.00 | 0.00 | 0.00 | 90 | 1009.0 |
| 20260506131550 | 50 | 171 | 11.0 | 15.0 | 0.00 | 0.00 | 0.00 | 90 | 1009.0 |
| 20260506130059 | 51 | 167 | 11.0 | 15.0 | 0.00 | 0.00 | 0.00 | 90 | 1008.9 |
| 20260506124557 | 51 | 175 | 12.0 | 17.0 | 0.00 | 0.00 | 0.00 | 89 | 1009.0 |
| 20260506123047 | 51 | 192 | 7.0 | 11.0 | 0.00 | 0.00 | 0.00 | 89 | 1009.1 |
| 20260506121548 | 51 | 182 | 7.0 | 12.0 | 0.00 | 0.00 | 0.00 | 89 | 1009.1 |
| 20260506120050 | 51 | 175 | 9.0 | 14.0 | 0.00 | 0.00 | 0.00 | 89 | 1009.2 |